Weather in Nagornyy

Russia / Yaroslavl Oblast     57°33′38″N   39°50′10″E
temp.,
°C
wind,
m/s
gust,
m/s
humid.,
%
clouds,
%
prec.,
mm/h
press.,
hPa
HPBL,
m
6 march, sat
sat600:00−14wsw338932 0.0 101330
03:00−14w349423 0.0 101472
06:00−16wnw339732 0.0 101428
09:00−14wnw239531 0.0 1015121
12:00−9wnw248593 0.0 1015446
15:00−7wnw358396 0.1 1014837
18:00−11wsw2389100 0.1 101322
21:00−13sw349250 0.1 101248
7 march, sun
sun700:00−14ssw47930 0.0 1009117
03:00−12s6128939 0.0 1005262
06:00−10ssw81492100 0.1 1000644
09:00−7s81493100 0.8 995789
12:00−4s81394100 1.2 991850
15:00−2ssw71195100 3.3 988782
18:00−7w91590100 1.9 988953
21:00−9w71393100 2.3 989603
8 march, mon
mon800:00−8w71388100 0.8 990788
03:00−11w61289100 0.8 991439
06:00−11wnw61193100 0.4 992411
09:00−9nnw5893100 0.7 995629
12:00−9n6889100 0.2 999739
15:00−9nnw6988100 0.4 1002875
18:00−11nnw4992100 0.1 1006371
21:00−14nnw4993100 0.2 1009229
9 march, tue
tue900:00−18nnw469789 0.0 1011103
03:00−21nnw349866 0.0 101362
06:00−24nnw349837 0.0 101567
09:00−22nnw369645 0.0 1017233
12:00−18nnw358758 0.0 1018463
15:00−16nw468780 0.0 1019581
18:00−21nw369594 0.0 101993
21:00−24nnw349767 0.0 102239
10 march, wed
wed1000:00−26nnw229911 0.0 102319
03:00−27nnw11996 0.0 102419
06:00−28nnw11990 0.0 102419
09:00−23nne11930 0.0 102581
12:00−18ene11830 0.0 1025293
15:00−15ene11780 0.0 1025361
18:00−20ne129268 0.0 102520
21:00−22se119279 0.0 102620